Skip Page Navigation
NASA JPL Caltech
NASA Logo - Jet Propulsion Laboratory + View the NASA Portal
+ Center for Near-Earth Object Studies
JPL Home Earth Solar System Stars & Galaxies Technology
JPL Solar System Dynamics
BODIES ORBITS EPHEMERIDES TOOLS PHYSICAL DATA DISCOVERY FAQ SITE MAP
JPL Small-Body Database Browser
Search: [ help ]  
102368 (1999 TB141)
Classification: Main-belt Asteroid          SPK-ID: 2102368
Ephemeris | Orbit Diagram | Orbital Elements | Mission Design | Physical Parameters | Discovery Circumstances ]

[ show orbit diagram ]
Orbital Elements at Epoch 2459200.5 (2020-Dec-17.0) TDB
Reference: JPL 19 (heliocentric ecliptic J2000)
 Element Value Uncertainty (1-sigma)   Units 
e .05614733385424801 4.3403e-08  
a 2.740444597331287 1.6935e-08 au
q 2.586575939615857 1.206e-07 au
i 1.365089737702351 5.2789e-06 deg
node 4.620753057001707 0.00018358 deg
peri 70.28446131378838 0.00019007 deg
M 205.4317318264376 5.0574e-05 deg
tp 2459911.955607741425
(2022-Nov-28.45560774)
0.00023624 TDB
period 1657.028456185554
4.54
1.536e-05
4.205e-08
d
yr
n .2172563776175049 2.0139e-09 deg/d
Q 2.894313255046717 1.7886e-08 au
  Orbit Determination Parameters
   # obs. used (total)      601  
   data-arc span      7591 days (20.78 yr)  
   first obs. used      1999-10-02  
   last obs. used      2020-07-14  
   planetary ephem.      DE431  
   SB-pert. ephem.      SB431-N16  
   condition code      0  
   norm. resid. RMS      .54891  
   source      ORB  
   producer      Otto Matic  
   solution date      2020-Nov-12 19:55:10  

Additional Information
 Earth MOID = 1.60141 au 
 Jupiter MOID = 2.24236 au 
 T_jup = 3.347 
[ show covariance matrix ]

Ephemeris | Orbit Diagram | Orbital Elements | Mission Design | Physical Parameters | Discovery Circumstances ]

Physical Parameter Table
Parameter Symbol Value Units Sigma Reference Notes
absolute magnitude H 15.76   n/a E2021B55  

102368 (1999 TB141)          Discovered 1999-Oct-06 by LINEAR at Socorro
Reference: 20051019/Numbers.arcLast Updated: 2005-10-26

Alternate Designations
 1999 TB141 = 1999 TM260 = 1999 TM299 = 2001 DK43 = 2001 DN77 
Ephemeris | Orbit Diagram | Orbital Elements | Mission Design | Physical Parameters | Discovery Circumstances ]
ABOUT SSD CREDITS/AWARDS PRIVACY/COPYRIGHT GLOSSARY LINKS
FirstGov 2021-Mar-04 20:14 UT
(server date/time)  
NASA Home Page
Site Manager:   Ryan S. Park
Webmaster  Alan B. Chamberlin